Weather in Somovo

Russia / Oryol Oblast     52°26′37″N   35°51′43″E
temp.,
°C
wind,
m/s
gust,
m/s
humid.,
%
clouds,
%
prec.,
mm/h
press.,
hPa
HPBL,
m
20 april, tue
tue2000:00+6ene499593 0.1 1016475
03:00+6ene4895100 0.3 1015350
06:00+6e41096100 0.8 1014415
09:00+7e6993100 1.1 1013599
12:00+8e61091100 0.3 1012704
15:00+8e7985100 0.4 1010710
18:00+7ene6989100 0.1 1008702
21:00+5ne61094100 0.1 1007608
21 april, wed
wed2100:00+4nne5895100 0.1 1005495
03:00+4n4694100 0.1 1004453
06:00+3nw4794100 0.1 1005486
09:00+4wnw4593100 0.1 1007560
12:00+6w4584100 0.1 1009771
15:00+7wsw5679100 0.2 1010941
18:00+6wsw3589100 0.2 1012827
21:00+5wsw3591100 0.3 1014372
22 april, thu
thu2200:00+5sw359296 0.1 1015363
03:00+3ssw3796100 0.1 1016157
06:00+3s3695100 0.0 1017148
09:00+7s58849 0.0 1017354
12:00+12ssw7969100 0.0 1017945
15:00+10ssw597729 1.4 1017600
18:00+12ssw597662 0.6 1016607
21:00+8s49885 0.9 1017166
23 april, fri
fri2300:00+7s4109098 0.3 1017168
03:00+8s51484100 0.3 1017330
06:00+8s5138794 0.0 1017281
09:00+12s712719 0.1 1017755
12:00+15s912547 0.6 10161927
15:00+15ssw8116087 1.1 10141390
18:00+13ssw61271100 2.1 1013812
21:00+10ssw41093100 8.4 1013530
24 april, sat
sat2400:00+10s71391100 2.3 1011991
03:00+4wnw5996100 3.1 1012564
06:00+4wnw4797100 2.5 1013611
09:00+5w4792100 3.3 1013686
12:00+8w795678 0.3 10121781
15:00+8w8105439 0.4 10122095
18:00+7w79625 0.4 10131327
21:00+3w410755 0.4 1014337